Theta_e
309 308 308 310 314 317 319 319 315 321 320 317 322 318 313 318 322 319 323 337 345 341 339 342 344 344 347 350 352 351 351 351 349 349 351 349 345 347 346 344 341 336 337 337 338 337 337 337 338 342 344 344 343 341 340 340 340 339 339 338 337 333 330 327 327 329 330 331 330 328 327 327 328 329 332 334 337 338 338 337 339 340 340 339 339 336 329 323 320 325 334 337 335 334 333 333 334
308 308 308 311 316 317 320 321 321 323 321 317 320 319 317 320 322 319 319 334 343 340 342 343 345 344 347 350 350 352 351 349 347 349 349 347 347 348 346 344 337 336 337 336 336 335 335 335 336 340 342 344 343 341 341 341 340 339 339 338 338 334 330 329 327 328 331 332 331 331 330 330 330 329 330 333 337 340 341 340 340 341 341 340 340 338 330 320 318 321 328 335 335 334 335 333 333
308 309 309 314 316 316 323 324 325 322 317 318 321 322 319 319 321 322 324 335 341 340 342 340 341 339 345 355 351 354 351 346 347 349 347 347 348 347 348 344 336 336 337 336 336 334 334 333 335 338 342 344 343 342 341 340 340 339 339 339 338 335 332 329 327 328 331 333 333 333 332 332 332 332 332 333 337 340 341 340 340 341 340 341 340 339 332 320 317 320 323 332 335 335 336 334 332
309 310 311 317 318 319 328 329 332 325 318 320 320 322 322 324 329 331 333 339 340 337 337 334 339 335 344 358 350 351 351 347 348 348 348 348 348 348 348 345 339 338 336 336 335 334 334 333 334 337 341 343 343 343 341 341 341 340 339 339 338 335 332 331 329 328 331 334 333 334 334 333 334 333 333 335 335 338 340 340 340 340 340 340 339 338 335 323 317 321 321 328 334 336 336 335 332
309 313 311 317 322 322 326 326 330 325 320 322 320 323 324 327 333 333 333 335 335 334 334 334 339 336 341 347 344 352 351 348 348 347 348 348 349 349 349 346 340 338 337 337 336 335 333 333 334 337 340 343 344 343 342 342 342 341 339 339 339 336 333 332 330 329 331 334 334 334 335 335 335 334 333 334 334 337 339 340 340 339 339 339 338 337 336 327 318 322 324 326 331 333 334 333 332
311 314 312 315 320 319 323 324 325 324 322 322 324 326 321 325 330 329 331 331 332 332 332 336 339 341 343 340 342 349 348 349 349 347 349 348 349 349 349 345 340 339 338 337 337 336 333 332 334 336 340 342 344 345 344 342 342 342 340 340 339 337 334 333 332 330 332 334 334 334 335 336 336 335 334 334 335 338 337 338 339 337 337 337 337 337 336 331 322 321 327 328 328 329 330 330 330
311 315 318 317 318 319 325 328 326 326 324 321 323 324 318 323 329 327 332 331 332 332 334 338 338 344 346 343 345 345 343 348 348 348 349 349 349 349 348 344 340 339 339 338 338 336 334 332 333 336 339 342 344 345 345 343 343 342 340 340 340 338 335 333 333 331 332 334 335 335 336 336 336 335 334 334 336 337 336 336 335 336 336 335 336 336 335 334 329 323 326 330 329 328 329 330 330
312 317 321 321 322 320 323 325 324 325 324 320 320 320 318 323 329 327 330 330 332 332 336 337 337 348 347 344 349 345 344 347 346 348 348 349 349 348 348 343 341 340 340 339 339 338 333 333 334 336 338 341 343 344 345 344 344 343 342 341 340 339 335 334 334 332 333 334 335 336 337 337 336 335 334 334 337 336 336 336 335 335 335 334 333 333 333 334 333 329 325 326 327 327 327 329 330
312 316 319 322 322 320 321 320 318 320 321 319 317 318 319 321 327 327 329 329 330 331 335 336 338 348 347 346 350 345 346 348 347 348 348 349 348 348 348 344 341 341 341 340 340 338 333 333 333 335 339 340 343 344 344 344 345 343 343 342 341 339 335 334 334 334 334 335 336 336 337 338 337 336 334 334 336 337 336 336 336 335 334 332 331 330 330 332 334 332 329 327 324 324 323 324 325
315 316 319 322 321 319 322 320 319 321 318 318 316 316 317 316 320 323 326 329 329 333 335 338 341 345 346 347 347 345 347 348 348 349 349 349 348 348 348 346 343 341 342 342 340 338 334 333 333 336 339 341 342 343 344 345 345 344 343 342 342 340 337 336 335 334 335 336 336 336 337 338 337 336 335 335 336 337 336 336 335 335 333 332 331 329 329 330 331 331 330 330 326 324 322 320 320
320 317 318 323 321 319 320 322 323 324 320 318 316 315 316 314 316 317 324 331 329 333 338 341 343 342 343 342 343 345 347 348 348 348 349 349 348 347 347 347 345 342 344 343 341 339 336 335 335 336 338 341 342 343 344 344 345 344 344 342 341 340 338 337 336 335 335 336 337 337 337 337 337 336 335 335 337 336 336 337 335 335 333 332 331 329 329 328 329 329 329 331 329 325 321 319 319
319 317 320 323 323 320 321 324 323 324 320 318 318 317 317 315 316 319 326 331 329 335 338 339 341 340 342 341 342 346 346 347 348 347 349 348 347 347 346 346 344 343 344 344 341 340 339 338 338 339 339 341 343 344 344 343 344 344 344 342 341 340 339 338 336 336 335 335 337 337 337 337 336 337 336 335 336 336 336 337 336 336 334 332 331 329 328 327 328 328 328 331 330 327 322 319 320
318 318 322 320 321 323 320 320 320 322 320 318 318 316 317 316 320 324 327 330 332 337 335 334 337 338 340 339 341 345 346 346 348 347 348 347 347 347 347 346 345 345 345 344 341 339 340 340 340 341 341 341 342 342 342 343 344 344 344 342 341 340 339 338 337 337 336 336 336 336 336 336 336 337 337 336 336 337 337 337 336 335 334 333 331 329 328 326 327 326 326 330 332 328 324 322 322
317 318 321 317 319 322 318 317 318 318 318 318 317 314 316 319 323 325 327 331 332 331 330 332 334 337 338 338 342 344 346 346 347 347 346 346 346 346 346 346 346 345 345 344 341 338 339 339 339 340 341 341 340 341 341 342 343 343 344 343 341 340 339 339 339 338 337 337 336 336 336 336 336 336 337 336 337 337 337 337 336 334 333 333 330 328 327 325 326 325 323 327 331 330 326 324 324
314 317 320 317 316 317 316 317 317 315 316 317 314 314 317 320 324 325 327 329 329 327 330 332 330 338 341 340 343 341 343 346 346 346 345 345 345 345 345 345 345 343 344 345 340 337 337 338 338 338 338 338 338 339 340 340 341 341 342 343 341 340 339 338 339 338 337 337 336 336 336 336 336 336 337 337 337 337 336 336 335 333 332 333 331 327 326 324 325 325 321 323 327 330 328 324 324
313 315 316 314 314 314 315 317 316 315 317 316 314 316 321 322 324 324 325 326 328 327 329 331 325 333 339 336 339 338 342 346 344 345 344 345 344 344 344 343 344 343 343 344 340 337 337 336 336 336 337 337 337 339 339 339 339 339 339 340 340 339 339 339 339 338 337 337 336 336 336 336 337 336 337 337 337 337 336 335 334 333 332 333 332 329 327 325 325 324 322 321 321 328 329 324 323
313 315 315 313 315 314 316 317 315 315 317 316 314 317 322 323 323 323 324 325 329 327 327 327 322 327 332 330 333 335 340 343 344 344 342 343 343 343 343 343 342 342 343 342 341 338 338 338 336 335 335 336 337 337 338 339 339 338 337 337 338 338 339 339 338 338 337 337 337 337 336 336 337 337 337 338 338 337 337 335 333 333 333 332 332 330 329 327 325 324 323 321 320 327 329 323 323
312 316 315 313 317 316 317 319 315 315 315 315 314 316 321 324 324 322 325 325 326 328 326 324 322 323 323 325 330 332 337 341 341 340 338 336 338 339 340 342 343 342 342 343 342 340 340 339 337 336 335 335 335 335 336 337 338 338 337 335 335 336 337 338 337 337 337 337 338 337 336 336 336 336 337 338 337 337 336 335 333 333 333 331 331 330 330 327 326 325 323 323 325 328 326 323 323
315 317 315 317 320 317 317 318 314 314 313 315 315 315 321 324 323 322 326 326 326 329 326 323 323 321 320 323 327 331 335 336 337 336 333 331 333 334 335 340 343 342 342 343 343 341 341 339 339 338 337 336 334 334 333 334 336 336 336 334 334 335 336 337 337 337 337 337 337 338 337 337 337 336 336 336 335 335 335 334 333 333 333 332 329 329 330 327 324 325 325 326 328 328 326 323 322
314 314 314 319 320 316 316 315 314 314 312 315 315 315 320 320 320 322 326 326 328 329 326 325 324 322 322 322 325 329 331 332 334 333 329 329 332 332 334 338 341 342 342 342 342 342 342 341 340 340 339 339 337 336 334 333 333 334 335 333 333 335 335 335 335 336 336 337 338 338 338 337 337 335 336 335 334 334 334 333 333 333 332 332 329 328 330 328 324 324 326 327 327 328 326 323 321
312 312 316 319 317 314 315 315 314 314 312 314 315 316 316 315 319 324 326 328 328 327 326 327 324 321 322 323 323 324 326 326 328 328 325 325 327 331 335 339 341 341 341 341 342 342 342 342 341 341 340 341 340 339 336 335 334 333 333 332 333 333 334 334 332 333 335 335 336 337 336 336 335 335 335 334 333 334 334 334 333 333 332 331 329 325 327 328 325 325 326 326 326 325 324 322 321
311 313 316 316 314 313 314 314 314 314 312 314 316 316 314 316 324 323 324 328 329 326 325 324 322 321 321 322 322 322 324 325 323 321 321 322 323 328 334 339 339 339 341 340 340 340 340 341 340 340 340 341 341 340 340 338 337 336 335 333 332 332 333 334 331 329 331 331 332 333 334 334 334 334 334 333 333 334 335 335 334 333 332 330 327 324 324 325 325 326 325 325 324 323 321 321 322
311 314 314 313 311 311 313 314 314 315 314 315 315 316 314 318 324 320 320 325 326 326 324 323 322 321 320 320 321 323 326 326 322 319 318 319 322 325 330 333 333 334 339 340 339 338 339 339 339 338 339 340 340 340 341 340 339 339 338 336 334 332 332 333 330 328 328 329 330 333 334 334 334 334 334 334 334 334 335 335 334 333 332 330 326 323 323 322 324 325 323 324 324 322 321 323 324
310 312 313 311 311 311 312 313 313 314 315 315 314 315 315 317 320 319 324 324 323 326 324 323 322 320 320 322 324 324 325 324 321 319 319 319 321 322 323 325 326 330 334 336 338 337 337 337 337 337 337 337 338 339 339 340 340 340 340 339 337 335 333 333 332 328 327 330 333 336 336 335 334 334 336 336 336 335 335 335 335 334 333 331 327 323 322 321 324 325 322 322 324 322 322 325 327
311 311 312 311 311 312 313 313 312 313 315 315 315 318 316 316 321 323 326 324 323 326 325 323 322 322 324 326 327 326 326 324 319 318 319 319 319 319 319 319 321 324 326 328 332 334 335 334 334 334 332 334 335 336 338 339 339 339 339 340 339 337 336 335 334 331 329 331 335 336 336 336 335 335 336 336 336 335 335 336 336 335 334 333 328 324 323 321 323 325 321 321 321 320 323 326 327
313 311 311 311 312 312 314 313 312 313 314 315 315 317 316 316 321 322 323 322 323 324 323 322 323 324 326 327 328 327 328 325 318 317 318 318 318 317 317 318 319 321 323 324 326 327 328 328 328 328 329 332 334 335 336 338 338 338 338 338 339 338 338 337 336 335 334 334 335 335 335 336 336 336 336 336 336 335 334 335 336 336 335 335 331 325 324 323 322 324 322 321 321 322 324 326 327
314 312 311 312 311 312 313 314 314 314 313 316 316 316 316 314 317 321 322 322 324 324 324 322 323 326 325 327 327 325 326 323 318 317 318 318 318 316 317 319 319 321 322 322 322 322 323 323 324 328 331 333 332 332 333 334 336 337 337 337 338 338 338 338 337 337 337 337 337 336 335 335 336 335 335 336 335 334 335 335 336 336 336 336 333 328 326 326 325 325 323 323 324 324 325 325 326
312 311 311 312 312 311 313 312 314 314 312 315 317 314 313 312 315 322 324 323 324 324 324 322 323 326 325 326 325 322 322 319 318 318 318 317 317 317 316 318 319 320 321 321 321 321 322 323 323 329 333 331 329 330 330 331 333 335 336 337 337 337 337 337 337 337 336 336 336 336 336 335 336 335 335 335 334 334 334 335 335 336 336 335 334 331 329 328 329 328 327 326 325 324 325 326 327
311 312 312 314 317 313 312 314 313 314 313 315 316 314 317 317 314 321 324 323 325 323 324 323 323 325 325 324 323 322 320 318 318 318 318 318 317 317 316 317 318 318 320 320 320 320 321 323 323 328 331 327 326 327 328 328 329 330 332 332 332 332 333 335 335 335 336 335 335 335 336 335 336 336 335 335 334 333 332 334 334 334 335 335 336 334 331 331 332 331 331 330 329 327 327 328 330
312 312 312 316 318 316 312 315 314 313 315 315 314 315 323 326 314 317 324 323 324 324 323 322 323 325 325 324 323 323 321 318 319 317 318 318 317 317 317 317 318 318 318 318 319 319 320 322 322 324 325 323 323 325 326 325 325 325 326 326 328 329 331 333 334 335 335 334 333 333 333 334 336 335 335 335 334 333 332 333 334 334 335 335 335 335 333 331 332 333 332 332 332 331 329 330 332
314 311 316 317 312 315 317 315 315 312 313 314 313 313 320 323 314 315 323 323 323 324 323 322 323 325 325 324 323 323 321 318 318 317 317 318 317 317 317 317 317 317 318 318 318 317 319 321 321 321 321 321 322 323 324 322 322 323 322 323 326 327 327 330 332 332 331 330 329 328 329 332 333 334 335 334 333 333 332 332 333 333 334 334 334 335 334 332 330 331 332 331 332 332 331 331 331
318 310 318 322 313 315 319 313 315 314 311 313 314 315 317 317 312 315 320 321 323 323 323 323 324 325 326 325 323 323 321 317 317 318 318 317 318 317 317 317 317 317 317 317 317 317 318 319 320 320 319 319 320 321 321 320 320 321 322 323 323 323 322 323 325 325 325 328 328 326 327 329 330 331 333 333 332 332 332 332 332 332 333 333 334 334 334 333 330 330 331 331 331 331 331 331 332
326 314 314 320 315 314 316 312 314 314 312 312 312 316 319 318 314 313 318 320 322 323 322 323 325 326 326 325 323 322 322 320 319 318 318 317 317 317 318 317 317 317 316 317 317 317 317 318 319 319 319 319 318 318 318 317 318 319 321 322 322 321 320 319 320 321 323 328 328 326 327 327 327 329 330 331 332 332 333 333 332 331 332 333 333 334 334 332 331 329 330 331 331 331 331 331 331
329 326 321 319 315 312 315 316 315 313 312 313 312 315 318 322 318 312 314 319 321 322 322 324 324 325 326 324 323 322 321 322 322 318 318 318 317 318 318 317 317 316 316 316 317 317 316 317 318 318 318 317 316 315 314 315 316 317 318 318 319 319 319 319 320 322 325 329 328 326 326 326 326 327 329 330 330 331 332 333 331 330 331 332 333 334 333 332 332 331 331 330 331 331 330 330 330
319 327 327 322 319 316 316 318 318 314 313 313 312 313 315 320 320 314 313 316 322 322 320 322 323 323 325 324 322 321 320 321 321 319 318 319 318 318 317 317 317 316 317 316 317 317 315 316 317 317 316 315 314 313 312 314 315 315 314 315 317 318 319 321 323 324 327 328 326 325 325 324 325 326 327 328 328 329 329 330 331 329 330 331 333 334 333 333 333 333 332 331 331 331 331 330 330
319 327 328 321 318 319 319 319 319 316 314 314 313 313 313 315 318 319 316 315 319 321 320 321 323 323 324 323 322 320 321 320 318 318 319 319 318 318 318 317 317 317 317 317 317 316 313 314 317 316 315 314 313 313 314 315 316 315 313 314 317 317 318 320 322 323 325 324 323 322 322 322 323 323 324 325 326 327 326 327 328 328 329 330 331 333 333 332 332 333 332 331 331 331 331 330 330
322 327 327 321 318 319 320 319 322 318 313 315 318 315 314 317 324 329 324 316 315 318 322 324 323 324 323 323 323 320 320 319 317 318 319 319 319 318 318 318 318 318 318 317 317 315 311 313 316 315 315 314 313 314 316 316 316 315 314 315 317 317 317 317 318 319 320 321 321 321 321 321 320 320 321 322 323 325 325 326 326 326 329 329 328 329 330 330 330 331 331 331 331 331 331 330 331
323 323 319 318 320 319 318 322 328 322 314 317 321 318 319 329 336 338 331 317 315 318 320 323 322 322 322 323 322 320 321 320 319 319 319 319 319 318 318 319 318 318 318 317 315 313 311 312 315 315 314 315 314 315 316 315 315 314 313 313 315 317 317 314 314 316 317 317 319 321 320 319 318 318 319 320 321 323 324 324 325 325 327 328 328 328 328 327 328 328 328 328 328 329 329 330 331
328 324 318 321 323 319 322 334 335 327 321 322 323 320 325 338 337 337 336 325 323 322 319 322 322 321 322 322 322 321 321 323 322 321 319 319 319 318 318 318 318 318 318 317 314 311 310 311 313 313 314 316 316 317 317 316 314 314 312 311 313 315 314 313 314 315 315 315 316 318 318 317 318 319 319 320 321 322 322 323 323 323 324 326 326 326 325 325 326 327 326 326 326 326 327 328 329
331 324 317 322 323 317 323 335 336 331 324 321 324 322 328 338 335 334 334 326 326 324 320 322 321 322 322 320 322 321 321 323 322 321 321 319 318 318 318 318 318 318 317 316 314 311 309 311 312 313 315 316 317 318 318 316 315 314 312 311 312 312 311 312 315 316 317 316 316 317 318 317 317 317 318 319 321 321 321 322 322 322 322 322 323 323 322 322 322 324 324 325 326 327 327 329 329
330 328 320 324 326 319 322 327 332 337 332 325 324 324 332 338 330 332 330 321 323 325 320 320 319 320 321 320 322 321 321 321 320 320 321 319 318 318 318 318 317 317 317 317 314 309 307 310 312 314 316 316 317 318 319 318 314 312 311 312 312 311 311 313 315 316 317 317 316 317 318 315 314 315 317 318 319 320 320 320 320 321 321 321 321 321 320 320 320 320 321 321 322 324 326 328 329
328 333 330 329 327 323 323 325 329 335 332 325 317 320 337 342 330 330 328 322 325 322 318 320 319 317 318 320 320 321 322 321 319 320 320 320 318 318 318 317 317 316 317 317 313 306 306 310 314 315 316 316 317 318 319 319 314 311 312 312 312 312 312 312 312 313 315 315 316 316 315 313 314 314 315 316 317 317 317 318 318 319 319 319 319 319 319 319 319 318 318 319 318 319 321 323 324
323 330 335 332 328 325 325 325 325 326 325 322 320 321 332 338 334 332 326 322 324 321 318 321 320 316 316 317 318 319 321 321 320 320 320 319 318 318 318 317 317 316 316 316 312 307 307 310 314 316 316 317 318 319 320 320 315 312 312 312 311 312 311 310 310 311 313 314 315 315 313 314 315 315 314 315 315 315 315 316 316 317 317 317 317 317 317 317 317 316 316 317 317 317 318 318 319
322 329 335 331 325 324 329 326 323 324 322 324 331 326 321 328 333 330 324 321 323 322 321 322 321 318 315 315 316 317 319 320 320 320 320 320 318 318 318 317 317 316 316 316 312 309 309 311 314 317 317 318 320 319 319 320 315 312 312 312 311 312 310 308 308 310 311 312 312 312 312 314 316 315 315 315 314 314 314 313 313 312 313 312 313 313 312 312 312 312 313 314 315 316 316 317 317
326 332 329 324 322 325 331 327 323 325 318 322 334 324 315 326 334 330 323 319 321 323 323 323 322 319 316 314 314 315 318 319 319 320 320 319 318 318 318 318 317 316 317 315 312 309 309 311 315 316 317 319 320 318 317 318 315 312 311 311 311 312 312 309 309 310 309 308 308 309 310 313 314 313 314 314 314 313 311 310 309 308 308 307 307 307 306 306 306 308 309 311 312 313 313 314 315
326 328 323 323 327 328 329 323 323 324 316 321 333 322 314 324 334 332 322 317 321 324 323 321 319 317 316 315 314 314 316 318 318 319 320 319 318 319 319 318 317 317 317 316 312 311 311 312 314 316 317 320 320 316 315 316 314 312 312 310 310 312 313 311 311 311 309 307 307 308 308 310 312 312 311 312 313 312 310 309 308 307 308 307 306 306 305 306 307 308 309 309 309 309 309 310 311
321 323 322 323 327 329 331 330 325 319 320 329 332 323 315 319 330 334 324 319 322 321 320 319 317 316 315 314 314 314 315 317 317 319 319 318 318 319 319 318 317 317 317 316 314 313 313 313 313 314 316 319 320 316 313 314 313 312 312 309 310 312 313 312 311 311 309 307 307 307 307 309 311 312 313 312 311 311 311 311 310 309 310 309 308 307 308 309 309 308 307 307 307 308 308 308 308
321 323 325 321 322 326 330 332 323 315 324 332 329 322 315 317 328 331 325 323 321 318 318 318 317 316 314 313 313 312 313 316 317 318 320 320 319 319 318 318 318 317 316 316 315 315 314 314 313 314 315 317 319 317 314 314 313 312 311 310 311 314 314 313 311 309 309 308 307 306 307 309 310 312 313 312 312 312 312 313 313 312 312 310 309 308 308 308 307 305 306 308 308 308 308 308 308
321 322 325 320 319 321 324 327 322 320 326 324 321 320 316 320 327 325 324 323 319 317 317 317 317 315 312 313 313 312 314 316 317 318 320 322 322 319 318 318 318 317 317 317 316 316 316 316 315 315 314 313 316 318 317 316 315 314 312 310 312 315 315 315 313 311 310 310 309 307 307 309 309 310 311 311 312 313 313 314 315 314 312 310 309 308 307 305 304 304 306 308 309 309 309 309 309
314 316 322 320 318 317 321 324 317 317 324 321 318 318 319 324 321 319 323 321 317 317 316 314 315 314 313 312 312 313 314 315 317 318 320 321 321 319 318 318 318 318 317 317 317 317 317 318 318 317 315 315 316 318 318 318 317 316 315 311 311 315 316 316 315 313 312 312 311 310 308 309 309 309 310 311 312 313 314 314 314 312 311 310 309 308 306 305 304 304 306 308 309 309 310 309 309
314 314 316 318 323 321 320 323 317 316 322 321 316 317 325 326 316 317 322 317 315 314 313 314 313 313 314 311 311 313 314 315 318 319 320 320 319 318 319 319 319 319 318 317 317 317 318 318 319 319 318 319 320 319 318 318 318 317 317 314 311 314 316 315 314 314 313 313 313 312 311 310 309 309 312 312 313 313 313 313 312 311 310 309 307 306 305 305 305 305 306 307 308 309 309 309 309
315 313 312 314 322 324 319 318 319 320 320 320 317 320 329 324 314 317 319 316 315 313 311 312 312 312 312 311 312 312 314 317 319 320 321 320 318 318 319 319 319 319 319 318 318 318 319 319 319 320 320 320 321 321 320 319 318 317 317 316 313 313 315 316 314 313 314 313 314 313 312 312 310 310 312 313 313 313 313 312 311 310 309 307 305 305 305 306 306 306 307 306 306 307 307 308 308
318 313 313 314 313 318 319 316 319 320 317 319 318 319 328 321 313 317 318 317 317 313 311 311 311 311 311 310 310 310 311 315 318 321 321 319 318 318 319 319 319 320 319 320 319 319 319 319 319 320 321 321 321 321 321 321 320 319 318 318 315 314 315 316 315 314 314 314 314 314 313 313 312 311 312 313 313 312 312 311 310 308 307 306 305 305 305 306 307 307 307 306 306 306 306 307 307
318 314 316 316 313 321 323 317 322 321 317 321 320 317 324 323 317 319 319 318 318 314 312 311 310 311 311 311 309 308 310 311 314 319 322 322 318 317 318 319 319 320 320 320 320 320 320 320 320 321 321 322 321 322 322 322 322 320 319 319 318 316 315 315 316 314 314 315 315 315 313 313 313 311 311 313 313 312 312 310 308 307 306 305 305 306 306 307 307 307 306 306 306 306 306 306 306
315 315 314 314 317 326 324 317 321 320 316 322 324 318 317 320 322 322 318 317 318 315 313 312 312 312 312 312 310 309 309 310 311 314 321 325 321 317 318 318 319 320 320 321 321 321 321 320 321 321 321 322 322 323 323 323 323 322 320 321 320 319 317 316 316 316 315 315 315 315 314 314 314 313 312 314 314 313 312 308 306 306 305 305 305 306 307 307 307 307 306 306 305 306 306 306 306
313 314 314 317 322 322 319 316 317 318 318 322 323 318 318 322 323 321 318 318 317 315 315 314 313 313 312 313 312 310 310 311 312 311 314 319 317 317 319 319 319 320 320 320 321 321 322 321 321 322 322 323 323 323 323 322 322 322 321 321 321 321 319 317 317 317 316 316 316 315 314 314 315 314 313 314 314 313 310 307 306 306 306 306 306 307 307 308 307 307 306 306 305 305 305 306 305
318 317 315 318 318 314 313 313 313 317 321 324 321 318 324 329 324 318 318 319 317 316 316 315 313 312 312 312 312 311 310 311 312 312 313 314 312 313 318 319 319 319 319 320 320 321 322 322 322 322 322 322 323 323 323 323 322 322 321 321 321 322 321 318 318 318 317 317 316 315 314 315 315 315 314 314 314 311 308 307 307 307 306 307 307 308 308 307 307 306 305 305 305 305 305 305 305
320 318 313 313 314 314 312 312 316 317 318 321 321 319 325 326 320 318 318 318 318 316 316 314 312 313 312 311 310 309 309 309 309 311 312 311 308 308 312 317 319 320 319 320 320 321 322 323 323 323 322 322 323 323 323 322 322 322 321 322 322 322 321 319 318 318 317 317 316 315 314 315 315 315 313 314 312 309 307 308 307 307 307 308 308 308 308 307 306 305 305 305 305 305 305 305 304
Wind_Speed
9 9 7 7 8 6 3 3 1 2 2 1 1 1 4 5 2 2 4 3 2 2 3 3 6 6 6 6 7 5 4 4 4 4 3 4 15 25 24 19 21 24 21 18 16 17 16 16 17 17 17 17 18 18 17 16 16 16 15 15 15 14 14 14 15 15 15 15 16 16 16 16 16 15 15 15 14 14 14 14 15 15 15 16 15 16 17 17 17 16 17 16 16 16 17 18 18
8 7 6 5 5 2 1 3 2 3 3 2 3 4 5 4 2 4 5 2 2 1 5 8 8 8 8 7 5 4 6 5 1 3 2 8 19 22 21 19 24 24 20 18 16 16 16 16 16 17 17 17 18 17 17 16 16 16 15 15 15 15 14 14 14 14 15 14 15 15 15 15 15 15 14 14 14 14 14 14 14 14 15 15 14 16 17 17 17 17 17 16 16 17 17 18 19
7 6 4 2 2 3 1 3 2 0 3 1 4 4 4 3 4 6 6 6 7 8 9 7 7 5 4 5 3 3 2 4 2 3 4 13 15 17 20 18 24 23 20 19 16 16 15 15 16 17 18 18 18 17 17 16 16 16 16 15 15 15 14 14 13 13 14 14 14 14 14 15 15 14 14 13 13 12 13 15 15 14 14 14 14 15 17 18 17 17 17 17 17 17 17 18 20
7 5 3 1 1 3 3 3 2 4 3 3 1 3 4 2 1 2 4 9 10 7 6 4 5 3 3 6 3 3 2 1 2 3 4 9 11 18 19 19 24 21 20 18 16 15 14 15 15 17 18 18 18 16 16 15 15 15 15 16 15 15 14 14 13 13 13 13 13 13 13 14 14 14 13 13 12 11 12 13 14 14 14 14 13 14 17 17 17 17 18 17 17 16 16 18 20
6 4 2 2 2 1 2 2 1 4 3 4 2 3 2 4 5 6 4 4 4 5 4 4 3 1 3 4 1 1 2 2 2 3 5 7 15 21 19 21 24 21 20 18 16 15 13 15 15 16 18 19 18 16 16 15 15 14 15 16 16 15 14 13 13 13 13 12 12 12 12 12 13 12 12 12 11 11 11 12 12 13 13 13 12 14 16 17 17 18 19 18 17 16 16 18 21
5 3 3 3 2 1 2 1 2 2 5 4 2 5 2 4 4 4 3 4 5 3 3 4 5 4 4 2 2 2 3 4 3 4 9 13 19 21 21 24 24 22 20 17 16 14 14 14 15 16 18 19 17 16 15 15 15 14 14 15 16 15 14 13 13 12 12 12 12 12 11 11 11 12 11 11 12 12 12 12 12 12 12 11 11 13 14 16 17 18 20 19 17 17 18 20 21
3 2 2 3 1 1 3 2 4 3 4 6 4 4 3 2 3 3 2 4 4 2 1 4 9 8 4 1 2 2 2 7 6 9 15 20 21 21 22 24 24 22 18 17 15 14 14 14 15 16 17 18 17 17 16 16 15 14 14 14 15 16 14 13 12 12 12 12 12 11 11 11 11 11 11 10 12 12 12 12 12 12 12 12 11 11 12 14 15 17 19 19 16 16 17 18 19
3 1 1 3 1 2 3 1 3 3 4 4 5 6 2 2 4 2 3 0 0 1 4 7 6 6 1 1 2 2 4 9 11 15 21 23 22 21 22 23 23 21 18 17 15 14 14 14 15 16 18 18 18 17 16 16 15 14 14 14 15 15 15 13 12 12 12 11 12 11 11 11 11 10 10 10 11 12 12 12 12 12 12 12 11 11 11 11 13 15 17 18 16 14 14 15 16
4 2 1 3 1 1 1 2 3 3 5 5 6 8 2 4 4 4 5 2 2 4 7 7 3 4 3 3 3 2 6 13 18 20 23 23 21 21 21 22 23 20 18 16 15 14 14 14 15 16 18 18 17 17 16 15 15 14 14 14 15 15 15 13 12 11 11 11 11 11 11 10 10 10 10 10 10 11 11 10 11 11 11 11 11 11 10 10 11 11 13 15 15 13 13 13 13
4 2 2 2 2 0 4 2 3 3 5 6 6 10 6 6 6 8 8 3 3 4 5 3 3 8 7 5 2 1 8 18 21 20 20 22 21 21 20 20 21 20 17 16 16 14 14 14 15 16 17 18 17 16 16 15 14 14 13 14 14 15 14 13 12 11 11 10 10 11 10 10 10 10 10 10 10 10 10 9 9 9 9 10 11 11 10 10 9 8 10 13 13 13 13 12 12
3 3 3 3 3 1 3 3 4 4 5 5 6 10 9 7 7 8 7 6 5 3 4 5 7 10 9 4 1 3 13 19 20 20 20 21 20 20 20 19 20 19 17 17 16 14 14 14 15 16 17 18 17 16 16 15 15 14 13 14 13 14 14 13 12 11 11 10 9 10 10 10 10 10 10 10 10 9 9 9 9 9 9 10 11 10 10 9 8 7 9 11 11 12 13 13 12
2 2 4 4 2 2 3 3 5 6 6 5 6 8 6 7 5 7 8 10 7 5 5 3 6 8 8 3 0 7 14 16 18 21 20 20 19 19 18 19 19 19 17 17 17 15 14 14 14 15 16 17 16 16 15 15 15 13 13 13 13 13 13 13 12 11 11 10 9 9 9 9 9 10 10 10 10 9 9 9 9 9 9 10 10 10 9 8 8 7 8 11 10 10 12 12 12
3 2 4 2 3 3 2 3 5 5 6 4 5 5 4 7 7 10 11 11 9 7 5 2 9 6 6 2 2 6 9 13 19 21 21 20 19 19 18 19 19 19 18 18 18 17 15 15 15 14 14 15 15 15 14 15 14 13 13 12 12 13 13 12 12 11 11 10 9 9 8 8 9 10 10 10 9 9 9 9 9 8 9 10 9 9 8 7 8 7 8 11 10 9 11 12 11
3 2 4 1 1 2 2 2 3 2 4 5 5 5 2 6 9 11 12 11 6 6 2 5 10 8 5 4 2 4 7 15 21 21 22 20 20 19 18 18 18 18 18 18 19 18 16 16 15 15 14 15 15 15 14 14 14 13 12 12 12 12 12 11 12 12 10 9 9 9 9 8 9 9 10 10 9 9 9 9 9 8 9 10 9 8 8 7 7 7 8 11 11 9 10 11 10
4 1 4 2 1 1 2 3 2 1 4 6 6 7 4 3 5 11 13 12 5 4 6 5 4 6 7 8 5 7 12 19 21 22 23 21 20 18 17 17 17 17 18 18 19 18 16 15 15 14 14 14 15 15 14 13 13 13 12 12 11 11 12 11 11 12 10 10 10 10 9 8 9 9 10 10 10 9 9 10 9 8 10 10 9 7 8 7 8 8 7 10 12 11 9 10 10
3 3 4 2 1 2 2 4 0 0 5 6 7 7 5 5 4 8 6 7 8 5 5 2 3 2 10 8 8 16 21 23 23 24 23 21 20 18 16 16 17 18 18 19 19 17 15 14 14 13 12 13 13 14 14 13 12 12 12 11 11 11 11 11 11 11 10 9 10 11 9 8 9 9 9 9 9 9 10 10 9 9 10 11 10 8 8 8 8 9 8 8 12 13 10 9 10
2 4 3 1 1 3 3 3 1 1 6 8 8 6 4 3 4 3 3 6 10 7 5 2 4 2 9 6 15 25 25 26 26 26 24 22 21 18 16 16 17 18 18 19 19 17 15 14 13 12 12 12 12 12 12 12 12 11 11 11 11 11 11 11 10 10 10 9 11 11 9 9 9 9 9 9 9 9 10 9 9 9 10 10 9 8 8 8 8 9 9 8 11 14 10 9 11
3 3 2 1 3 5 4 5 4 1 4 8 9 5 0 2 3 2 6 8 6 9 7 4 7 8 11 15 24 28 27 28 27 26 22 20 19 17 16 16 17 17 18 18 17 16 15 14 13 12 12 12 12 11 12 12 12 12 11 11 11 11 11 11 10 10 10 11 12 11 9 8 8 8 9 10 9 9 9 9 8 9 10 10 9 8 8 7 8 9 10 10 12 14 11 10 11
3 3 2 3 5 5 4 5 4 2 4 9 9 2 1 3 5 3 5 5 5 10 6 6 10 10 13 16 23 25 27 27 25 25 20 16 17 16 16 16 18 17 18 17 16 16 15 15 14 13 13 13 13 12 12 12 12 12 11 11 11 11 11 11 11 11 10 11 12 10 9 8 9 9 10 10 9 9 9 8 8 10 10 9 8 8 7 7 8 9 10 12 13 13 11 10 11
1 3 2 5 6 5 4 6 8 5 4 7 8 4 3 3 1 3 7 7 5 8 7 7 10 10 12 12 17 23 24 22 24 24 18 15 16 17 18 18 19 19 18 17 16 16 16 15 14 13 13 13 13 13 13 12 12 12 12 11 12 12 11 11 11 11 10 11 12 10 9 9 10 10 10 10 9 9 9 8 9 10 10 8 8 8 8 7 9 10 11 13 13 14 13 10 10
1 3 4 7 4 4 7 8 9 5 2 4 4 5 3 3 3 4 11 10 1 5 9 13 16 16 16 12 13 19 18 17 19 20 17 15 14 16 19 20 19 18 17 15 15 15 15 14 14 13 12 12 12 13 13 13 13 13 12 12 12 12 12 12 12 11 11 11 11 11 11 11 11 11 11 10 10 11 11 10 10 10 10 9 9 8 9 9 10 12 12 14 14 14 13 11 9
1 3 6 7 3 3 9 6 7 4 3 3 1 5 2 1 3 6 11 10 6 8 9 14 21 20 19 16 13 14 14 13 14 16 17 15 14 16 18 19 18 16 16 15 14 14 14 13 12 12 11 11 11 12 13 13 13 13 14 13 13 13 13 13 13 12 12 12 12 11 12 12 12 12 12 11 12 12 12 12 12 12 11 11 11 9 9 10 11 13 13 15 14 13 12 10 8
2 5 4 7 4 4 9 4 3 2 3 2 1 3 1 4 5 5 4 5 5 6 8 12 18 19 20 17 14 14 13 12 12 15 18 18 17 18 19 18 16 16 17 16 15 14 13 13 12 10 10 10 9 10 11 12 12 13 14 14 14 14 14 14 14 13 13 12 12 12 12 13 13 13 13 12 12 12 13 13 13 13 13 12 11 10 10 10 11 13 14 15 14 12 11 9 7
4 5 6 7 6 7 10 6 4 3 1 3 1 4 3 5 7 3 3 6 3 6 7 8 11 13 15 14 12 13 13 12 13 17 20 21 21 21 20 19 18 18 17 16 16 15 14 13 12 10 9 8 7 8 9 10 10 11 12 13 14 14 14 14 13 13 13 13 12 11 11 12 13 13 13 12 11 12 12 14 14 15 14 12 12 11 10 10 11 12 14 14 13 12 11 9 7
4 6 6 5 5 8 10 9 8 7 5 2 4 5 2 7 7 3 5 6 3 8 9 9 10 11 11 11 11 11 10 11 13 16 18 20 22 21 19 19 19 19 18 17 15 16 15 13 12 11 10 9 7 7 8 9 9 10 11 12 13 14 15 14 13 13 13 13 11 10 10 11 13 13 13 12 12 12 13 14 15 15 14 13 13 12 11 10 11 12 12 12 13 13 12 9 8
6 7 5 5 7 7 8 9 9 6 5 2 5 3 2 6 5 2 4 2 5 9 10 10 11 11 10 9 9 10 10 10 12 15 17 19 21 19 18 19 20 20 20 18 16 16 14 13 11 10 10 9 8 8 7 7 8 9 10 11 12 14 15 14 14 13 13 12 10 9 9 11 13 13 13 14 14 14 14 15 16 17 15 14 14 13 12 11 11 12 12 12 12 12 12 10 8
5 5 6 8 9 8 5 7 8 5 4 2 6 3 4 1 2 1 2 2 7 11 10 9 10 10 9 8 7 8 9 10 14 17 16 17 19 20 19 19 21 21 21 19 17 15 14 12 10 10 11 10 9 9 8 6 6 7 8 9 11 13 15 15 15 14 13 12 10 9 9 10 12 12 13 14 15 15 16 17 18 17 15 14 14 14 13 12 11 11 12 13 13 13 12 11 10
5 4 6 8 6 5 3 3 6 2 2 2 8 4 3 3 1 5 5 6 9 13 12 9 9 8 8 8 7 7 7 11 16 17 16 17 20 23 22 21 23 22 20 19 17 15 14 12 10 10 12 12 11 10 9 8 7 6 7 7 8 9 11 13 15 15 13 11 11 10 10 11 11 12 13 14 16 16 16 17 17 16 16 16 16 15 14 13 11 11 12 12 13 14 13 12 12
5 2 2 7 6 2 4 2 3 1 1 4 6 3 4 2 4 4 7 9 9 13 13 11 9 8 8 8 7 5 7 11 14 17 19 21 23 25 24 22 23 21 19 18 16 14 13 12 11 10 12 12 11 11 10 10 9 8 6 5 5 4 4 6 9 12 11 10 10 9 10 11 11 12 13 15 16 15 15 15 15 16 18 18 17 16 16 15 12 9 9 10 11 12 13 12 11
5 2 2 3 7 3 3 2 2 2 2 3 4 2 6 7 6 1 7 9 10 11 12 11 9 7 7 7 6 6 7 10 13 18 22 24 26 27 26 24 22 21 19 17 16 14 13 13 13 11 11 11 12 12 12 12 11 9 7 5 5 6 4 4 6 8 9 9 8 7 7 8 9 11 12 13 14 13 12 13 14 16 17 17 15 15 17 17 16 12 9 8 9 11 13 12 10
4 3 2 2 2 3 6 4 1 3 2 1 6 1 7 8 6 3 7 8 11 12 11 11 9 7 7 6 7 6 6 8 14 20 24 27 29 28 27 26 23 22 21 19 17 15 14 15 15 14 12 12 12 13 13 12 10 8 7 6 7 7 6 5 6 6 6 5 5 4 4 4 5 7 8 11 12 11 10 12 14 14 13 13 14 16 17 17 18 18 14 11 12 13 14 13 11
3 2 3 4 1 4 8 4 4 4 3 3 6 2 6 7 6 6 6 7 10 11 10 9 9 9 7 6 6 6 6 8 13 19 24 28 29 29 29 27 25 23 22 20 18 16 15 15 16 15 13 13 13 14 14 12 10 8 8 8 9 9 7 5 4 5 6 5 4 4 3 2 2 2 4 6 7 8 10 12 13 12 10 10 13 15 16 17 19 20 18 15 15 15 15 15 13
4 2 1 4 2 3 5 3 2 3 2 3 2 3 5 5 5 8 8 9 10 11 10 10 9 9 8 7 6 6 6 7 9 15 23 27 29 31 30 29 27 24 22 21 20 18 17 17 18 17 15 14 14 15 14 12 10 9 9 10 10 9 6 5 3 4 7 6 5 4 2 1 1 0 1 2 3 6 9 10 10 11 11 11 12 13 14 15 17 18 18 17 17 16 16 15 14
4 3 2 3 1 1 3 4 4 1 2 4 2 4 6 6 1 8 10 10 11 10 11 12 10 9 8 8 7 8 9 8 9 15 23 27 28 31 31 29 27 25 23 22 20 19 19 19 19 19 17 15 14 14 13 12 12 11 10 10 9 7 6 5 4 5 8 7 5 5 4 3 3 3 2 1 1 5 7 6 6 9 12 11 9 10 11 11 13 15 17 18 18 18 17 15 14
2 1 2 2 2 1 3 4 5 5 2 4 3 5 10 8 3 4 7 8 11 11 10 10 10 9 8 8 9 9 10 11 12 17 24 26 28 31 30 29 28 26 24 22 20 19 18 19 19 19 18 16 15 14 14 14 13 12 10 9 8 8 7 7 6 7 8 7 5 5 4 3 4 4 5 4 1 3 4 4 3 3 8 9 8 9 8 7 9 11 14 16 17 18 17 16 16
5 3 4 2 1 3 5 5 5 3 4 3 4 7 7 6 7 3 1 5 10 9 7 6 6 6 7 8 8 9 11 12 12 17 23 25 27 30 29 29 28 26 25 23 21 19 19 20 20 19 19 18 18 18 17 17 15 13 11 9 9 9 9 8 8 7 7 6 5 4 3 1 0 1 2 3 3 2 3 4 3 3 1 4 6 7 7 8 8 7 9 12 14 17 15 14 15
4 4 4 1 1 3 5 5 6 2 3 3 4 6 4 4 8 7 1 4 7 7 7 7 7 7 8 10 10 12 11 8 8 15 21 22 23 26 27 28 28 26 25 24 22 21 20 21 22 21 20 20 20 20 19 18 16 14 12 11 11 10 8 6 6 5 5 4 4 3 2 1 2 1 1 1 1 1 2 4 4 4 5 4 4 2 2 5 9 9 7 7 10 13 11 9 9
3 3 2 3 0 3 5 4 6 3 3 3 4 3 5 5 6 7 4 3 7 9 10 10 11 10 9 11 12 10 6 3 7 12 16 17 19 22 25 27 29 28 27 26 24 23 21 21 23 23 23 23 21 20 19 17 16 14 13 12 11 10 7 5 6 5 4 4 3 2 1 0 1 1 1 1 2 2 2 3 6 7 8 8 9 9 8 6 3 7 6 5 6 8 7 7 9
3 2 1 3 2 3 6 5 6 4 2 3 4 2 5 7 6 7 6 3 5 8 11 11 12 11 9 10 10 8 6 5 8 10 13 17 18 21 24 27 29 28 28 27 25 24 24 23 24 25 26 25 22 19 18 17 15 13 12 11 11 10 8 7 7 6 4 3 3 2 2 2 2 2 3 3 4 5 4 4 6 8 10 10 10 12 11 11 8 5 5 6 6 7 7 7 7
2 3 2 2 3 1 3 5 6 4 2 1 1 4 5 6 5 6 5 4 3 5 11 10 10 12 12 11 9 9 10 10 10 11 11 13 16 20 23 26 27 26 28 29 28 27 27 27 27 28 27 25 23 20 17 16 14 13 12 11 11 10 10 9 8 6 5 3 3 3 3 2 2 1 1 3 4 5 5 6 7 8 10 10 10 12 13 13 13 11 10 9 7 6 5 6 4
2 2 4 3 4 2 4 4 6 5 5 2 4 5 6 5 4 6 5 3 4 1 4 6 8 11 11 9 9 10 12 12 13 13 11 12 16 21 23 25 26 27 29 30 30 31 31 30 30 29 28 25 23 20 18 16 15 15 14 12 11 10 10 10 8 7 6 4 3 3 2 3 3 3 3 2 2 2 3 4 5 7 8 8 8 10 11 11 12 12 13 13 12 9 7 6 5
4 3 6 7 6 3 2 2 5 5 5 4 3 2 5 5 3 6 4 4 5 4 1 5 8 8 8 9 10 11 11 11 12 13 14 14 17 19 21 24 26 28 31 32 33 34 34 32 31 30 28 26 23 21 19 17 17 18 17 15 14 13 12 10 8 8 6 4 3 3 3 5 6 5 4 2 1 0 0 1 2 5 6 6 7 7 8 8 9 11 11 12 13 12 10 10 10
2 5 7 7 5 4 3 2 3 2 2 4 2 3 4 6 4 7 5 5 7 6 5 7 7 6 8 10 11 11 12 12 11 12 14 14 15 18 20 25 29 30 30 32 33 35 34 33 32 31 28 26 24 22 20 19 19 20 18 17 15 14 13 11 9 8 6 4 4 3 3 5 6 6 6 4 3 1 0 1 1 2 4 4 4 5 6 7 8 9 9 10 11 11 11 12 12
3 5 6 7 5 5 5 5 3 3 3 3 4 4 2 4 5 6 5 6 9 9 8 9 8 7 8 10 12 13 14 14 13 13 14 14 15 20 24 29 31 30 29 31 34 34 34 33 32 31 29 27 25 23 22 21 22 21 19 17 15 14 13 11 10 9 7 6 5 4 4 5 4 5 6 5 4 2 2 2 2 3 4 5 5 5 7 7 7 7 8 8 9 10 11 11 10
6 6 6 4 4 5 6 6 3 0 1 3 5 2 2 4 6 5 5 4 7 8 9 10 9 10 8 8 12 13 15 16 15 16 16 15 18 25 29 30 30 29 31 34 35 36 35 34 33 31 29 28 25 24 23 23 24 22 19 17 16 14 12 11 11 10 9 8 7 6 6 5 4 4 5 4 4 3 3 4 5 6 6 7 6 7 7 7 8 9 9 9 9 10 10 10 9
5 4 4 3 4 4 4 5 3 2 2 4 6 1 2 4 5 4 3 2 6 7 8 8 9 11 9 7 10 12 13 13 15 16 16 18 24 29 29 26 27 29 31 33 34 35 36 35 34 32 31 29 26 25 25 25 25 24 20 18 17 16 15 13 13 12 12 10 9 8 6 6 5 4 4 4 3 3 4 4 4 5 6 7 7 7 8 8 9 10 10 10 10 10 10 10 9
3 5 5 5 5 4 3 2 3 2 2 6 7 4 4 2 5 4 3 3 4 4 6 8 9 10 10 7 7 11 11 12 14 14 14 18 21 22 22 22 25 26 27 29 31 33 35 35 35 35 33 30 28 27 27 27 27 24 22 20 18 18 17 16 16 15 14 13 11 9 7 6 6 5 4 4 3 2 2 2 3 4 5 7 8 9 9 9 10 10 10 10 9 10 10 10 9
5 5 4 2 3 4 4 4 3 1 4 7 6 3 4 2 4 5 5 5 4 4 6 9 10 11 11 7 2 7 9 11 13 13 11 11 11 14 19 21 22 24 26 29 31 32 35 37 37 35 34 32 31 30 30 29 27 26 24 22 20 19 19 19 18 17 16 15 13 10 8 8 7 6 5 4 3 2 2 1 1 2 4 7 8 9 10 11 11 11 10 10 10 10 9 10 10
5 4 5 3 2 3 2 3 1 3 5 5 3 2 2 4 6 6 6 7 7 5 6 8 8 9 10 8 3 4 5 7 9 10 10 9 9 13 19 21 23 26 29 31 33 33 34 37 37 37 36 35 33 32 32 30 29 27 25 23 22 20 20 20 19 19 17 15 13 11 10 9 8 7 6 4 3 2 2 2 2 2 4 7 9 10 11 11 11 11 11 11 11 11 11 11 11
3 4 4 3 1 1 2 4 1 3 5 4 2 2 2 3 3 5 5 6 7 5 6 5 2 5 8 9 7 4 5 5 5 6 8 10 11 14 19 23 25 28 31 32 33 34 34 35 37 38 37 36 35 34 33 32 31 29 27 25 24 22 21 21 20 20 19 16 14 13 11 10 9 8 6 5 4 4 4 4 3 3 5 7 9 10 10 10 10 11 12 12 12 12 12 11 11
3 4 5 4 4 3 3 3 3 3 4 4 3 1 2 2 2 5 6 6 5 3 3 3 7 7 7 10 10 8 3 3 4 4 5 7 11 16 21 24 27 29 31 33 34 33 32 33 35 37 36 36 36 35 34 34 32 30 29 27 25 24 23 22 21 21 20 18 16 14 13 12 11 9 8 7 7 8 7 5 4 5 6 8 9 9 9 8 9 10 11 12 12 12 12 12 12
2 2 4 2 4 5 2 2 4 3 1 3 2 2 3 3 3 6 5 3 4 4 5 10 11 9 11 12 11 10 7 3 3 5 4 5 7 13 19 24 28 29 29 31 32 32 32 33 35 36 36 36 37 37 36 35 34 32 30 29 27 26 25 23 23 23 22 20 18 16 15 14 12 10 9 9 9 8 7 6 6 7 8 9 9 9 8 8 9 10 11 12 13 13 13 12 12
1 1 2 4 3 6 3 1 0 3 1 3 1 2 4 1 1 6 5 5 8 8 10 11 10 11 14 11 9 9 9 7 4 3 4 3 4 8 12 15 19 23 27 31 33 35 36 36 35 35 34 34 36 38 38 36 35 33 33 31 28 27 27 25 25 25 23 22 21 18 17 15 13 11 11 11 10 8 8 7 8 9 9 9 9 9 8 8 9 11 12 12 13 13 13 13 13
4 1 4 3 1 4 3 0 2 4 1 4 1 3 4 1 1 5 6 7 7 8 8 9 10 11 11 8 8 9 8 8 7 5 3 3 4 6 8 10 12 15 21 27 32 35 36 35 34 35 34 34 37 39 38 38 37 36 35 33 31 29 28 27 27 26 24 24 23 21 19 18 15 13 13 12 11 10 10 9 10 9 9 10 10 10 9 9 11 12 12 13 13 13 13 13 13
4 3 2 1 1 1 1 1 1 1 2 3 3 2 3 3 4 2 1 3 4 6 6 8 9 8 7 7 8 9 9 8 7 7 5 2 5 7 9 9 11 13 17 20 23 26 29 32 34 34 35 37 37 37 38 38 38 38 37 35 33 30 29 29 29 28 26 25 25 23 21 20 17 16 15 15 14 13 12 10 9 8 9 9 9 9 10 11 12 13 14 15 15 14 14 13 13
3 3 3 2 3 3 0 1 2 2 2 2 3 3 2 5 5 6 6 5 4 5 6 6 5 5 5 5 6 7 8 7 7 7 6 5 3 5 9 12 13 15 17 18 18 21 25 28 30 32 34 33 33 34 37 38 39 38 37 36 35 32 31 30 30 29 28 27 26 25 23 21 20 19 18 17 16 14 12 10 8 8 8 8 8 8 10 11 12 13 15 16 16 15 15 15 15
2 3 3 3 1 1 0 0 2 2 3 2 1 3 4 5 4 6 7 6 5 5 5 4 3 3 3 3 5 6 6 6 7 7 7 7 9 7 0 9 13 14 15 16 17 20 23 24 27 30 31 30 31 33 35 37 38 38 37 37 36 34 32 31 31 30 29 28 27 26 24 22 21 21 19 18 16 13 11 9 7 7 7 7 7 8 10 11 12 14 15 15 15 15 16 17 18
3 2 1 1 1 1 1 2 2 1 2 3 3 2 6 5 2 2 5 5 5 4 5 4 3 4 3 2 3 4 5 6 6 7 7 7 10 14 12 5 9 13 15 17 18 19 22 25 28 28 27 29 33 34 36 37 37 37 38 37 37 36 34 33 32 32 31 29 28 26 24 23 22 21 20 18 15 12 10 8 7 7 6 6 7 9 9 10 11 13 13 13 13 14 16 17 18
Wind_Direction
315 315 305 296 311 320 345 61 63 325 82 94 262 244 262 233 222 290 299 322 47 341 336 46 67 80 104 111 150 125 66 134 161 156 199 220 147 154 166 169 170 167 162 160 158 152 152 153 151 148 147 146 144 144 145 145 145 144 140 138 133 127 125 128 131 125 123 126 129 131 132 130 127 127 126 126 125 124 124 125 125 126 123 118 117 112 105 106 114 120 120 118 119 120 121 121 120
322 316 301 302 329 348 274 75 92 321 42 3 279 186 259 282 221 224 229 202 118 116 74 79 75 72 88 105 145 109 48 19 121 145 101 133 135 151 162 163 168 165 162 161 160 154 151 151 150 148 147 148 147 145 147 147 147 146 143 140 138 134 130 132 134 131 127 128 131 133 134 131 128 128 129 129 129 132 134 131 129 129 123 118 118 115 108 108 115 120 123 118 117 121 120 122 123
326 318 316 311 355 45 53 41 98 23 70 267 279 229 276 305 250 239 203 151 131 122 99 86 73 59 56 73 23 57 70 337 64 99 115 131 128 153 162 163 166 165 164 163 160 156 151 149 148 148 148 151 150 148 148 149 148 148 146 143 142 140 136 136 137 136 132 131 133 134 136 133 131 130 131 133 134 140 141 136 131 128 122 117 116 117 112 109 115 120 124 120 118 123 121 123 126
333 330 344 52 48 31 59 49 146 123 127 217 317 280 300 6 344 20 135 134 131 109 91 81 51 358 39 85 41 33 112 328 47 93 128 139 138 155 161 165 167 167 168 165 161 159 151 148 148 147 149 154 153 151 150 149 150 150 149 146 146 145 142 141 141 143 136 133 136 136 138 137 137 133 132 133 136 141 140 137 133 127 123 122 118 117 115 112 117 120 125 125 121 124 123 125 129
339 343 3 79 93 25 99 86 134 121 186 191 115 265 324 61 69 63 77 106 112 82 98 113 77 324 59 86 133 94 126 95 40 80 100 127 144 153 160 165 167 169 170 168 163 159 152 148 148 148 149 155 156 154 153 150 151 153 153 150 150 150 148 146 145 147 142 138 140 140 140 140 142 139 136 133 135 141 136 134 134 129 124 124 119 114 116 115 119 123 126 130 128 128 129 132 135
342 31 54 60 94 177 117 143 197 185 227 175 177 241 71 48 75 82 74 48 26 63 147 135 129 140 89 32 74 119 171 143 124 109 116 135 151 157 160 163 167 170 169 167 165 160 153 149 149 150 150 156 158 156 156 154 155 156 156 155 155 155 154 152 150 151 147 144 145 144 144 144 147 145 141 136 136 142 138 135 137 132 123 120 115 112 116 118 120 126 130 133 134 137 137 138 139
355 55 34 54 29 31 112 194 206 228 245 176 212 236 102 46 97 80 38 68 37 29 175 147 135 120 102 137 72 6 145 144 147 138 139 145 155 158 160 165 167 168 167 167 167 162 155 151 151 151 151 156 160 159 162 159 158 159 159 160 160 161 159 157 154 154 152 149 149 147 148 149 152 151 147 143 140 141 141 138 135 132 126 122 120 115 116 121 122 126 134 137 138 141 141 141 142
23 83 27 95 47 7 113 233 234 209 248 207 237 257 136 144 141 115 291 6 165 181 136 156 144 97 73 125 90 347 87 135 145 141 145 147 154 157 161 167 168 168 168 170 169 167 158 152 154 153 153 156 161 163 164 163 162 160 160 162 164 165 165 162 159 158 156 153 151 150 152 153 155 155 151 149 145 143 142 139 135 134 131 127 127 123 117 124 128 127 134 141 146 148 147 147 147
36 57 55 99 130 359 13 300 274 228 257 253 255 267 217 175 188 191 227 288 256 184 152 187 206 110 121 72 93 352 83 130 140 141 147 149 154 156 163 168 170 168 166 172 172 170 160 153 155 154 154 156 160 163 165 166 164 162 161 164 165 168 169 166 163 162 160 157 155 153 154 156 158 157 156 155 150 147 145 143 141 139 135 130 130 128 123 127 135 134 135 140 149 156 154 155 155
33 27 108 90 111 347 312 292 265 254 250 251 254 261 250 207 202 216 217 187 213 195 154 168 114 123 130 102 95 336 120 135 137 139 147 151 156 158 163 169 173 171 167 173 175 173 159 154 157 156 157 156 158 162 166 167 166 164 163 164 166 169 170 169 167 166 164 161 159 156 157 158 159 161 161 160 157 154 151 154 153 147 139 134 132 131 130 133 139 145 149 145 146 157 157 157 158
38 343 95 82 69 177 268 257 267 267 260 277 269 257 250 225 189 220 211 150 202 211 151 111 101 122 113 99 59 130 139 140 139 142 149 153 156 159 163 167 174 172 170 173 175 172 158 155 158 160 160 157 160 163 167 169 169 169 165 165 166 169 171 172 171 169 168 166 162 159 162 160 159 164 166 165 167 167 163 165 164 156 145 139 134 132 133 138 145 149 162 158 148 154 159 158 156
79 326 69 95 140 191 217 224 272 281 286 290 268 260 230 218 193 200 176 154 182 195 208 144 134 133 96 80 110 137 143 144 147 149 153 156 156 160 165 168 173 174 175 175 173 169 157 155 157 162 162 158 161 164 169 170 170 173 170 165 165 170 171 174 175 173 172 170 167 164 166 162 160 165 169 172 176 177 172 172 171 162 151 145 137 134 136 139 145 149 166 170 157 153 158 161 156
121 163 88 122 189 178 206 229 279 308 304 271 247 269 179 190 198 187 167 156 160 174 242 163 146 130 89 110 131 147 155 154 152 153 157 158 158 161 165 169 173 177 179 176 173 169 160 159 160 163 163 160 161 164 167 169 171 173 172 169 167 171 171 175 179 177 175 172 171 170 171 167 163 165 171 176 180 182 178 178 176 168 159 154 143 139 139 138 144 151 168 176 169 157 159 164 159
156 161 115 175 232 156 213 251 291 333 293 265 266 298 219 205 198 174 147 140 159 177 173 129 134 101 97 134 136 179 173 163 155 155 159 157 160 161 163 166 170 176 179 178 175 172 164 163 165 163 164 163 162 163 166 168 170 172 175 174 172 173 173 177 180 179 178 174 174 176 177 175 167 165 170 176 178 179 179 182 180 171 168 162 151 146 145 142 150 155 169 181 180 168 162 166 164
179 141 98 122 321 325 232 219 243 226 272 283 300 325 338 276 169 145 142 140 170 184 114 125 129 87 153 170 172 191 171 164 156 154 155 153 156 156 159 161 164 170 174 178 176 175 170 167 166 165 167 166 165 165 166 167 167 171 174 176 176 177 177 179 181 183 184 181 180 177 178 181 174 168 171 176 176 177 181 186 184 175 174 172 162 158 157 154 159 161 172 189 189 179 168 171 172
163 103 74 74 273 288 231 210 172 236 262 279 299 336 19 347 77 127 160 136 138 143 91 145 269 111 173 182 162 164 161 160 155 152 149 147 151 150 155 156 160 165 170 175 175 176 174 171 169 167 170 170 173 172 170 169 166 169 170 173 176 176 181 182 181 185 190 190 184 178 179 185 181 174 176 181 181 182 187 189 187 182 180 179 175 171 167 166 170 170 172 191 196 185 172 174 180
84 85 74 39 235 228 216 207 173 231 269 289 314 359 51 355 40 94 57 74 125 123 55 48 324 79 149 147 143 148 153 155 151 147 141 142 145 144 148 151 156 161 167 173 174 177 177 176 174 171 174 177 180 180 177 171 167 171 170 173 176 177 181 183 184 188 195 195 187 181 182 188 185 181 184 188 190 192 195 194 191 190 185 180 182 179 172 176 182 179 174 183 194 187 175 174 179
79 93 109 168 231 224 194 199 213 230 293 302 313 344 132 164 104 85 66 58 89 85 49 59 39 51 97 118 136 142 147 149 146 141 137 140 141 139 143 150 155 159 167 174 178 181 182 183 182 181 182 185 187 187 184 176 173 176 173 175 179 179 179 181 189 194 198 197 190 186 186 191 193 194 196 194 195 197 199 199 196 195 189 181 183 180 176 186 192 190 181 177 185 186 183 178 176
126 123 120 206 224 223 196 214 252 265 282 299 302 324 141 177 129 106 98 96 96 87 59 68 77 75 92 116 135 140 145 147 144 140 139 145 146 143 143 151 157 163 171 177 183 186 188 188 190 192 192 193 194 194 191 186 183 182 179 180 181 180 180 184 192 196 197 195 193 192 193 198 202 208 209 202 198 199 200 201 202 199 191 184 182 180 184 193 194 196 188 179 183 189 194 188 179
189 133 158 241 225 239 237 230 249 236 252 306 316 42 83 265 358 83 116 110 105 124 133 115 116 126 124 134 142 145 148 147 144 141 142 151 152 149 148 154 160 166 170 173 179 185 192 194 195 199 201 202 201 201 200 195 192 189 186 185 184 183 185 187 192 197 195 192 194 197 203 207 209 215 214 207 203 202 202 201 203 201 193 187 183 184 191 195 191 192 190 186 189 195 201 200 189
229 146 185 239 215 245 255 234 249 237 213 297 326 60 85 292 356 114 127 111 104 194 180 154 149 152 146 154 154 150 148 144 144 142 145 152 156 155 155 159 161 164 165 165 168 174 185 191 194 197 201 205 206 206 205 203 199 196 195 192 190 188 190 190 192 196 193 192 195 200 207 210 211 215 216 213 211 209 204 202 201 201 195 189 190 191 192 193 191 191 191 191 196 201 205 208 200
208 227 201 233 222 254 265 246 258 247 178 258 57 96 174 36 84 153 141 142 194 204 198 165 154 157 156 158 157 151 146 144 146 145 147 152 157 156 157 161 162 163 163 163 162 164 172 178 185 190 196 201 205 207 207 207 205 204 205 201 197 196 196 195 195 197 196 196 196 201 206 208 210 212 216 217 216 213 208 205 203 202 198 193 195 196 194 192 191 193 193 195 201 207 208 210 206
216 273 231 239 227 230 271 274 279 284 127 233 187 130 90 88 147 195 173 203 215 167 175 168 157 156 152 151 152 150 148 150 153 154 153 153 157 154 155 160 161 161 163 164 164 162 165 171 178 183 189 194 201 208 209 211 211 211 210 207 206 203 201 202 202 201 200 200 198 203 205 206 208 210 216 218 218 217 214 212 209 206 204 201 199 198 197 190 189 193 194 199 207 211 209 209 207
192 264 269 259 232 224 263 272 289 305 184 243 143 95 82 124 164 186 311 274 229 125 133 145 141 137 139 144 148 149 149 151 156 160 157 154 154 151 151 153 152 154 155 160 167 168 168 171 176 178 181 187 197 205 210 215 215 214 209 206 207 206 205 206 208 207 204 206 206 209 212 211 213 214 218 221 224 223 222 221 215 211 207 204 200 200 200 190 188 190 192 201 208 209 208 208 210
208 236 264 269 250 243 260 265 266 259 238 242 80 71 155 165 147 94 314 290 164 124 118 124 125 123 134 147 149 146 147 148 149 155 157 155 152 148 148 148 147 145 143 146 157 165 169 173 177 177 179 183 190 194 202 211 211 209 209 210 209 207 208 207 209 211 209 210 214 216 217 220 220 219 223 228 230 231 233 229 221 218 212 206 203 202 203 194 189 187 185 196 205 209 209 210 219
220 223 255 269 266 257 257 262 257 234 234 226 95 55 222 169 118 66 309 313 125 117 118 132 133 136 144 149 151 149 149 148 149 153 152 151 148 143 143 145 145 142 138 139 145 152 160 167 173 174 176 180 182 180 188 200 205 205 212 218 215 210 209 207 208 209 209 212 217 218 219 223 226 227 231 232 229 231 236 233 226 222 214 208 206 206 207 203 198 192 184 188 200 213 215 216 229
228 235 266 266 261 257 247 254 252 214 216 200 126 141 247 252 71 226 292 102 127 114 121 140 138 145 150 149 157 154 154 156 156 149 139 142 145 142 142 145 145 142 141 139 140 144 150 160 168 164 164 168 169 168 169 180 191 200 212 222 224 218 211 209 210 208 207 211 213 217 221 223 226 231 235 237 233 229 231 234 231 225 219 215 212 209 212 211 208 205 197 193 202 216 224 231 242
268 277 295 295 282 259 220 217 244 206 186 163 122 137 274 347 316 210 174 142 141 130 139 154 147 152 154 155 162 158 156 156 153 146 144 153 154 149 148 150 147 145 146 144 140 143 149 159 165 159 157 161 163 161 157 158 166 181 202 215 222 223 219 219 219 215 216 219 216 219 226 227 230 235 239 241 238 231 230 233 233 231 230 223 215 210 215 217 211 212 211 208 213 222 235 247 257
291 302 290 313 353 306 228 209 242 156 201 199 124 39 324 285 265 222 151 145 148 143 152 160 157 159 159 162 160 156 152 150 153 156 161 164 159 156 155 156 156 152 151 149 147 147 149 157 164 166 162 160 160 157 152 147 149 156 164 178 178 171 197 224 223 216 219 221 214 217 227 231 235 239 241 241 239 237 236 235 234 237 235 228 220 210 213 218 212 210 216 221 225 228 238 250 264
313 349 132 319 8 340 267 342 343 129 219 211 129 351 289 267 279 174 138 145 145 149 162 164 163 164 162 165 157 157 157 156 164 166 166 163 161 163 161 161 164 162 158 158 159 155 151 155 161 165 165 162 159 155 150 145 144 145 145 148 144 134 139 176 203 210 216 217 211 212 222 226 231 236 240 244 244 241 237 237 238 241 239 236 235 223 216 217 217 218 216 230 239 233 237 245 259
328 333 51 17 27 282 300 327 209 166 260 77 107 192 259 272 283 179 154 154 151 161 174 168 167 170 165 168 164 164 170 174 174 168 167 165 164 167 164 163 167 169 167 166 167 164 158 157 159 159 159 160 157 156 154 150 149 148 147 143 138 136 134 156 184 198 202 199 188 188 198 204 220 235 246 254 253 243 236 238 237 241 247 248 249 241 230 221 220 224 220 231 249 240 237 242 252
5 351 329 346 80 276 303 301 193 193 296 31 101 174 269 271 252 198 165 155 160 167 177 177 176 174 168 172 170 163 175 188 181 173 170 168 168 169 167 167 172 176 174 170 170 169 165 164 166 164 160 158 155 155 155 153 153 153 156 152 146 145 141 149 168 186 183 160 135 155 166 154 169 223 257 275 277 260 250 248 242 240 240 241 245 243 237 227 222 226 223 229 249 249 244 244 248
356 62 279 305 4 326 314 320 248 216 290 340 118 187 267 279 219 185 174 170 173 174 179 186 185 179 174 177 173 163 175 188 190 187 178 172 171 171 171 173 178 181 179 176 175 175 173 171 173 173 169 165 159 156 157 157 155 150 151 151 149 150 153 154 150 168 176 160 140 150 146 122 114 143 255 310 312 285 270 262 252 238 224 222 234 242 243 233 224 225 223 229 247 256 257 255 254
321 26 53 285 316 337 318 315 303 326 179 242 245 200 236 279 218 173 190 185 175 182 188 189 188 185 181 177 176 173 179 186 194 195 185 178 175 174 176 178 181 183 181 182 182 182 181 176 175 174 172 172 168 164 165 165 158 149 143 142 144 144 144 145 142 152 163 163 149 130 111 93 78 71 62 54 264 278 287 286 271 237 222 220 230 243 250 245 232 229 227 233 246 258 264 266 267
245 299 57 312 322 329 299 281 298 357 337 235 214 231 246 275 306 169 201 197 184 194 196 195 193 184 181 180 184 183 185 194 198 193 186 181 178 177 179 180 181 182 181 183 184 185 184 178 174 172 170 168 165 162 161 158 152 146 140 140 143 134 124 125 134 145 153 160 155 137 123 107 83 74 70 68 61 289 319 340 331 249 218 214 212 223 234 239 237 239 240 239 245 257 267 270 270
182 184 144 175 323 296 279 259 274 7 13 295 213 234 260 279 292 305 174 197 198 201 192 198 198 181 185 189 191 191 195 202 198 190 187 185 183 180 180 180 180 182 182 182 182 184 184 178 175 173 169 165 159 153 152 152 150 145 139 140 138 128 123 124 133 145 154 165 172 168 167 160 130 85 90 83 76 3 8 20 11 5 285 207 194 210 228 233 232 244 254 253 255 260 268 272 271
148 116 118 151 115 295 286 272 295 46 96 308 250 240 285 290 278 286 237 160 180 192 190 196 196 189 194 196 199 200 201 198 183 190 193 190 186 182 180 179 179 181 182 183 182 183 184 181 179 176 171 168 162 155 152 153 153 150 146 145 137 127 127 132 142 156 175 193 201 206 205 251 294 290 251 212 136 90 38 45 50 42 35 63 88 74 294 271 249 241 250 263 269 269 265 258 263
101 116 92 348 354 269 277 258 307 2 118 299 296 255 273 271 268 284 302 142 163 184 191 196 199 200 200 200 203 199 190 155 168 194 199 193 188 183 181 180 181 182 181 183 184 183 183 184 183 178 173 170 166 162 159 157 159 159 156 154 146 135 128 134 149 158 182 204 207 205 182 18 338 47 87 116 123 121 104 61 60 65 64 66 62 55 46 26 295 253 265 285 292 302 295 266 256
75 105 85 338 265 283 299 290 317 1 94 293 320 340 277 274 272 278 288 242 193 184 188 197 198 200 208 208 204 185 171 172 183 198 201 196 189 184 184 183 185 185 182 184 185 181 181 182 182 178 174 171 169 169 167 165 167 167 163 157 149 140 131 133 141 139 144 164 174 158 111 95 111 102 87 95 101 97 100 90 74 74 74 71 65 62 61 52 41 25 360 337 330 341 333 313 290
83 115 121 285 264 277 290 296 322 347 15 253 358 6 305 301 308 285 277 256 248 185 185 199 198 200 208 206 199 187 182 185 192 200 201 194 188 186 189 188 187 186 183 184 183 180 179 179 178 176 176 174 173 176 177 176 176 174 167 158 152 146 141 141 141 142 145 149 152 146 121 106 140 173 120 107 109 98 93 87 76 75 74 72 69 66 63 57 51 49 44 30 16 8 340 328 339
302 165 154 209 242 214 215 273 320 341 350 13 74 20 320 326 338 294 307 334 313 334 169 201 210 213 213 200 197 197 193 191 193 196 195 193 191 190 191 190 188 187 186 186 184 180 179 179 177 177 177 177 178 181 183 184 181 174 167 159 155 151 149 152 155 159 167 170 164 158 123 96 119 166 163 141 140 111 88 79 68 69 70 66 63 61 59 56 52 49 49 46 42 37 13 353 14
310 244 193 197 210 209 213 323 8 25 350 328 47 32 290 318 324 269 295 339 306 325 319 235 225 217 210 203 203 198 197 200 200 198 195 197 194 188 190 191 189 190 190 188 185 182 180 180 179 180 180 180 182 186 188 190 186 179 174 170 168 164 164 166 167 166 169 175 171 163 124 98 98 117 140 145 156 216 334 29 46 55 60 57 53 54 53 46 40 38 38 40 42 41 35 30 26
307 246 201 182 160 137 140 111 69 87 261 295 47 147 248 318 312 268 305 334 299 299 292 270 257 228 205 207 207 194 193 200 204 205 202 199 188 182 190 195 194 193 191 188 187 185 184 183 182 183 184 183 185 190 195 197 192 188 187 186 184 184 179 173 171 171 175 191 190 176 149 121 105 103 114 116 107 111 355 326 335 25 41 42 34 31 36 32 26 23 22 26 31 32 36 40 30
236 235 165 149 140 146 155 140 138 206 237 316 14 112 191 296 279 278 336 338 305 304 294 284 278 257 225 210 207 196 193 195 195 201 205 201 189 186 193 198 197 194 190 188 188 188 187 186 185 187 187 188 190 195 199 200 196 195 195 195 195 197 189 175 173 176 181 196 198 186 166 146 132 118 119 115 105 100 72 62 53 50 52 46 39 33 33 30 25 21 15 17 19 20 27 33 29
244 213 155 153 160 165 152 130 146 241 54 305 320 57 164 269 277 306 354 330 290 288 282 284 284 277 259 220 208 201 196 194 193 197 201 198 192 195 198 197 195 192 190 190 189 189 189 188 188 190 192 194 195 196 199 200 200 200 200 201 202 202 195 183 181 185 190 194 190 186 175 154 141 131 127 119 106 92 72 68 62 65 66 56 50 44 37 29 24 21 14 9 7 9 14 16 16
239 164 116 50 58 94 105 118 135 57 64 245 265 222 179 267 286 309 346 285 263 268 275 280 277 277 276 241 212 202 197 194 197 199 199 198 198 198 198 194 192 192 192 191 190 190 190 190 192 193 196 197 196 196 198 199 201 203 206 208 207 204 198 192 190 193 195 194 189 185 179 164 150 136 127 117 112 97 77 70 63 63 56 43 35 27 24 20 14 9 2 355 349 351 357 1 5
137 92 65 30 25 36 44 79 103 79 287 250 244 208 168 264 285 259 235 231 245 279 291 288 287 296 305 286 219 197 193 192 198 203 200 199 197 194 190 190 191 192 192 192 192 192 192 193 195 196 197 198 198 197 198 201 203 207 211 212 210 206 201 198 197 197 197 196 194 190 184 177 172 165 155 137 127 127 110 90 59 43 26 16 12 9 7 5 1 358 355 351 345 345 346 346 350
88 81 69 50 337 9 18 358 40 138 259 261 242 187 132 194 262 253 253 270 270 254 267 283 299 314 322 322 230 185 193 196 194 198 198 186 176 177 184 189 190 190 192 194 194 194 195 196 197 198 200 201 201 200 201 205 206 209 213 213 211 208 206 206 205 205 204 201 197 193 191 192 190 190 186 172 153 155 158 151 6 4 358 354 353 354 351 348 349 355 2 4 2 359 355 352 351
79 100 84 80 324 2 350 303 323 210 251 259 220 140 134 222 248 260 268 283 280 257 252 272 295 319 340 358 31 140 172 206 204 194 185 175 172 177 181 185 187 191 195 196 196 196 196 197 198 200 202 204 205 204 204 207 209 210 211 212 212 211 211 213 214 216 216 212 207 202 201 204 205 207 208 201 195 207 230 255 272 298 329 339 341 340 339 340 344 354 3 7 10 10 7 6 5
140 148 121 128 132 50 280 271 285 254 267 276 228 185 255 269 271 268 265 284 299 299 278 269 316 359 10 22 29 73 131 181 221 218 191 183 184 182 182 186 189 194 197 197 198 199 197 198 200 202 204 206 207 207 207 209 211 212 212 212 213 213 214 218 221 224 224 222 220 218 217 217 218 221 222 227 238 251 255 249 251 284 317 328 331 331 332 339 347 355 360 1 4 6 3 2 2
195 173 136 145 154 160 228 230 209 248 275 296 295 219 191 169 256 267 260 281 321 320 289 27 55 38 36 43 36 32 52 150 178 225 226 207 194 185 184 189 193 197 198 198 199 200 199 199 201 203 205 206 207 208 209 211 213 214 213 213 214 216 218 221 224 229 230 229 229 229 228 227 229 227 224 233 244 248 250 247 259 291 310 315 321 325 329 338 346 352 355 352 353 353 351 351 350
249 165 110 152 180 160 188 198 180 192 264 295 289 231 216 186 253 286 276 301 10 34 37 45 46 39 44 42 36 35 24 21 135 177 215 244 224 202 194 193 196 198 198 199 201 201 201 202 203 205 206 206 207 208 210 212 214 215 215 215 215 217 220 223 225 229 232 233 234 235 234 232 234 229 225 231 237 238 245 257 277 296 307 313 318 322 328 337 340 344 345 344 346 346 344 345 344
245 111 167 238 188 130 125 281 15 81 90 277 262 245 292 346 298 314 347 31 23 24 37 43 39 41 48 39 27 39 37 26 35 143 175 199 233 234 225 213 207 202 198 200 203 204 205 204 204 205 206 206 207 209 210 212 213 215 216 217 217 218 220 223 225 228 232 234 236 238 237 234 234 231 229 232 233 236 247 266 284 296 306 314 321 323 327 332 333 335 337 338 341 340 341 342 343
119 163 229 243 47 88 110 167 358 44 222 275 285 209 276 336 204 313 3 43 29 20 36 40 33 37 44 36 24 28 37 40 36 46 97 155 188 224 243 244 237 224 212 209 208 208 208 207 207 206 205 207 209 209 210 212 213 215 216 217 218 219 221 224 226 229 232 234 235 237 235 233 233 231 232 232 233 240 252 267 281 295 307 313 317 320 325 329 328 328 331 334 336 334 333 335 336
111 162 209 104 100 289 6 115 209 283 232 281 308 257 241 216 213 242 104 103 60 37 44 46 39 39 38 29 23 21 26 32 31 38 44 80 173 196 219 234 240 235 229 227 223 218 215 212 211 210 209 210 211 210 210 212 215 216 217 217 218 219 221 224 226 229 232 233 234 234 232 231 230 229 231 232 234 242 253 265 277 293 305 311 314 317 322 324 323 324 328 331 332 329 326 326 330
30 57 24 38 134 168 185 126 171 203 218 251 301 312 265 235 213 167 163 166 124 81 63 60 51 45 44 36 30 25 25 21 18 27 25 26 89 173 201 214 228 233 233 234 232 229 226 221 218 215 214 213 213 212 212 213 215 216 217 217 218 219 221 223 226 228 230 232 232 232 230 229 227 227 228 228 232 240 249 259 275 291 299 305 308 312 315 316 318 322 326 328 329 326 322 322 324
16 22 357 344 24 90 312 290 133 148 183 200 235 284 269 254 215 159 162 173 157 127 99 89 76 71 67 41 35 37 35 22 10 14 13 12 23 25 287 213 220 226 232 236 234 232 231 230 228 224 219 216 216 216 216 216 216 216 217 217 218 218 220 222 225 227 229 230 229 228 228 226 224 224 224 224 227 235 243 252 268 282 290 295 298 302 307 312 316 320 323 323 324 322 319 321 323
148 177 228 211 187 77 331 288 307 119 171 180 165 232 268 265 258 185 162 161 179 161 119 90 36 43 59 33 34 50 51 39 18 15 18 15 14 12 7 316 237 227 227 231 233 232 230 230 231 230 227 223 220 219 219 218 218 217 217 219 219 218 219 221 222 224 226 226 226 225 224 222 219 218 218 219 223 229 234 243 256 266 276 282 287 294 301 309 313 315 317 319 322 321 318 318 320